軌道要素
Epoch 2014 July 2.0 TT = JDT 2456840.5
T 2014 June 28.57324 TT MPC
q 1.8539559 (2000.0) P Q
n 0.04220414 Peri. 178.61082 +0.40968932 +0.90689961
a 8.1701997 Node 115.56630 -0.83799886 +0.41678819
e 0.7730832 Incl. 6.26400 -0.36043388 +0.06181177
P 23.4
From 195 observations 2014 June 2-Oct. 30, mean residual 0".5.
|